Zurück zum Katalog

STARLINK-4699

AktivKommunikationVLEO
NORAD 53716·PAYLOAD·🇺🇸 United States

Gestartet Sep 5, 2022 von Cape Canaveral Space Force Station

Loading…

Nächste Überflüge (nächste 24 Stunden)

TLE

AktuellSource: CelesTrak SupGP

Epoche: Sep 14, 2026, 20:34 UTC

1 53716C 22107S   26257.85743056 -.00013861  00000+0 -40959-3 0  2571
2 53716  53.1573 111.7704 0001253  86.5603 138.1298 15.34393417    11

Verfolge STARLINK-4699 in Echtzeit mit AllMySat

Download on the App Store